W4WWT Weather Reports


time (UTC)temp
C
wind
direction
speed
KPH
gust
KPH
rain 1hr
cm
rain 24hr
cm
rain mn
cm
humidity
%
barometer
mb
20260509053502 11 71 0.0 0.0 0.00 0.00 0.00 98 1021.0
20260509050504 12 159 0.0 0.0 0.00 0.00 0.00 97 1021.0
20260509045002 12 93 0.0 0.0 0.00 0.00 0.00 97 1021.0
20260509044001 12 91 0.0 0.0 0.00 0.00 0.00 97 1021.3
20260509042503 12 26 0.0 0.0 0.00 0.00 0.00 97 1021.3
20260509041502 12 51 0.0 0.0 0.00 0.00 0.00 97 1021.7
20260509040011 12 73 0.0 0.0 0.00 0.00 0.00 97 1022.0
20260509035003 12 74 0.0 0.0 0.00 0.00 0.00 97 1021.7
20260509033502 12 178 0.0 0.0 0.00 0.00 0.00 97 1022.0
20260509032502 12 111 0.0 0.0 0.00 0.00 0.00 96 1022.4
20260509031007 12 80 0.0 0.0 0.00 0.00 0.00 96 1022.4
20260509030003 13 105 0.0 0.0 0.00 0.00 0.00 95 1022.0
20260509024502 13 74 0.0 0.0 0.00 0.00 0.00 95 1022.0
20260509023501 13 74 0.0 0.0 0.00 0.00 0.00 95 1022.0
20260509022001 13 73 0.0 0.0 0.00 0.00 0.00 94 1022.0
20260509020504 13 62 0.0 0.0 0.00 0.00 0.00 94 1022.0
20260509011502 13 85 0.0 0.0 0.00 0.00 0.00 90 1021.3
20260509010002 14 90 0.0 0.0 0.00 0.00 0.00 89 1021.3
20260509003002 15 24 0.0 0.0 0.00 0.00 0.00 86 1021.3
20260509000004 16 100 0.0 0.0 0.00 0.00 0.00 83 1021.3
20260508234502 16 77 0.0 0.0 0.00 0.00 0.00 80 1021.3
20260508233502 16 77 0.0 0.0 0.00 0.00 0.00 78 1021.3
20260508232002 17 111 0.0 0.0 0.00 0.00 0.00 76 1021.3
20260508225501 17 92 0.0 0.0 0.00 0.00 0.00 67 1021.3
20260508224002 18 333 0.0 1.6 0.00 0.00 0.00 65 1021.3
20260508222502 18 32 3.2 3.2 0.00 0.00 0.00 64 1021.3
20260508215502 18 213 1.6 4.8 0.00 0.00 0.00 61 1021.3
20260508214002 18 106 0.0 1.6 0.00 0.00 0.00 61 1021.3
20260508212503 19 116 0.0 3.2 0.00 0.00 0.00 59 1021.3
20260508211503 19 143 0.0 1.6 0.00 0.00 0.00 59 1021.3
20260508210501 19 352 0.0 1.6 0.00 0.00 0.00 56 1021.3
20260508205002 20 70 0.0 1.6 0.00 0.00 0.00 57 1021.7
20260508202501 20 68 0.0 1.6 0.00 0.00 0.00 56 1021.7
20260508201002 20 91 3.2 4.8 0.00 0.00 0.00 56 1021.7
20260508195502 20 94 1.6 6.4 0.00 0.00 0.00 52 1022.0
20260508194002 21 118 1.6 3.2 0.00 0.00 0.00 51 1022.0
20260508191001 21 81 1.6 3.2 0.00 0.00 0.00 47 1022.7
20260508185502 21 243 0.0 0.0 0.00 0.00 0.00 47 1022.7
20260508184002 23 3 0.0 6.4 0.00 0.00 0.00 45 1022.7
20260508182502 22 258 0.0 3.2 0.00 0.00 0.00 43 1023.0
20260508181003 21 249 0.0 4.8 0.00 0.00 0.00 46 1023.4
20260508175502 21 201 4.8 4.8 0.00 0.00 0.00 44 1023.4
20260508174501 22 274 1.6 6.4 0.00 0.00 0.00 49 1023.7
20260508173003 21 219 4.8 4.8 0.00 0.00 0.00 49 1023.7
20260508171502 20 109 0.0 4.8 0.00 0.00 0.00 51 1023.7
20260508170002 20 268 0.0 9.7 0.00 0.00 0.00 52 1024.4
20260508164503 19 104 3.2 4.8 0.00 0.00 0.00 55 1024.7
20260508161503 20 129 6.4 8.0 0.00 0.00 0.00 53 1024.7
20260508160502 20 28 0.0 4.8 0.00 0.00 0.00 58 1025.1
20260508153502 18 298 0.0 6.4 0.00 0.00 0.00 56 1025.1
20260508152501 18 52 3.2 4.8 0.00 0.00 0.00 56 1025.4
20260508151002 18 11 0.0 4.8 0.00 0.00 0.00 62 1025.4
20260508145502 18 6 0.0 4.8 0.00 0.00 0.00 61 1025.4
20260508144502 17 114 0.0 4.8 0.00 0.00 0.00 63 1025.4
20260508143001 17 298 0.0 4.8 0.00 0.00 0.00 64 1025.1
20260508141502 16 112 0.0 4.8 0.00 0.00 0.00 70 1025.4
20260508140002 15 98 1.6 3.2 0.00 0.00 0.00 77 1025.4
20260508134503 12 136 0.0 3.2 0.00 0.00 0.00 89 1025.7
20260508133502 11 62 0.0 0.0 0.00 0.00 0.00 94 1025.7
20260508132003 11 48 0.0 0.0 0.00 0.00 0.00 96 1025.7
20260508125002 10 22 0.0 0.0 0.00 0.00 0.00 100 1025.4
20260508124002 9 132 0.0 0.0 0.00 0.00 0.00 100 1025.4
20260508122503 8 346 0.0 0.0 0.00 0.00 0.00 100 1025.1
20260508121002 8 63 0.0 0.0 0.00 0.00 0.00 100 1024.7
20260508115502 7 112 0.0 0.0 0.00 0.00 0.00 100 1024.4
20260508114002 7 120 0.0 0.0 0.00 0.00 0.00 100 1024.0
20260508112503 7 91 0.0 0.0 0.00 0.00 0.00 100 1023.7
20260508111003 7 104 0.0 0.0 0.00 0.00 0.00 100 1023.7
20260508105502 7 168 0.0 0.0 0.00 0.00 0.00 100 1023.0
20260508103002 7 113 0.0 0.0 0.00 0.00 0.00 99 1022.7
20260508101504 7 93 0.0 0.0 0.00 0.00 0.00 99 1022.7
20260508100502 7 124 0.0 0.0 0.00 0.00 0.00 100 1022.7
20260508095501 7 90 0.0 0.0 0.00 0.00 0.00 99 1022.7
20260508094003 7 68 0.0 0.0 0.00 0.00 0.00 100 1022.7
20260508093001 7 62 0.0 0.0 0.00 0.00 0.00 99 1022.4
20260508090003 7 259 0.0 0.0 0.00 0.00 0.00 99 1022.0
20260508084503 7 207 0.0 0.0 0.00 0.00 0.00 99 1022.0
20260508083002 7 64 0.0 0.0 0.00 0.00 0.00 99 1022.0
20260508082002 7 219 0.0 0.0 0.00 0.00 0.00 99 1022.0
20260508080502 7 84 0.0 0.0 0.00 0.00 0.00 99 1022.0
20260508075502 7 116 0.0 0.0 0.00 0.00 0.00 98 1022.0
20260508074004 8 67 0.0 0.0 0.00 0.00 0.00 98 1022.0
20260508071003 8 71 0.0 0.0 0.00 0.00 0.00 98 1022.0
20260508070002 8 221 0.0 0.0 0.00 0.00 0.00 98 1022.0
20260508064502 8 131 0.0 0.0 0.00 0.00 0.00 98 1022.0
20260508063501 8 45 0.0 0.0 0.00 0.00 0.00 98 1022.0
20260508062001 9 93 0.0 0.0 0.00 0.00 0.00 98 1022.0
20260508060502 9 137 0.0 0.0 0.00 0.00 0.00 98 1022.0
20260508055002 9 47 0.0 0.0 0.00 0.00 0.00 97 1022.0
20260508054002 10 46 0.0 0.0 0.00 0.00 0.00 97 1022.0